This is the latest recevied weather packets stored in our database for station/object LA3HOA-15. If no packets are shown the sender has not sent any weather packets the latest 10 day(s).
| Time | Temp. | Humidity | Pressure | Rain* | Wind** | Luminosity | Snow |
|---|---|---|---|---|---|---|---|
| 1787608720 | 28.33° C | 33% | 1013.5 hPa | - | - | - | - |
| 1787608419 | 28.33° C | 32% | 1013.4 hPa | - | - | - | - |
| 1787608119 | 28.33° C | 32% | 1013.5 hPa | - | - | - | - |
| 1787607819 | 28.33° C | 32% | 1013.4 hPa | - | - | - | - |
| 1787607519 | 28.89° C | 31% | 1013.3 hPa | - | - | - | - |
| 1787607219 | 28.89° C | 31% | 1013.3 hPa | - | - | - | - |
| 1787606919 | 29.44° C | 30% | 1013.3 hPa | - | - | - | - |
| 1787606619 | 29.44° C | 31% | 1013.5 hPa | - | - | - | - |
| 1787606319 | 28.89° C | 30% | 1013.4 hPa | - | - | - | - |
| 1787606010 | 28.89° C | 30% | 1013.4 hPa | - | - | - | - |
| 1787605410 | 30° C | 29% | 1013.4 hPa | - | - | - | - |
| 1787605110 | 30° C | 29% | 1013.4 hPa | - | - | - | - |
| 1787604810 | 30.56° C | 28% | 1013.3 hPa | - | - | - | - |
| 1787603310 | 37.22° C | 24% | 1013.1 hPa | - | - | - | - |
| 1787603007 | 37.78° C | 24% | 1013.2 hPa | - | - | - | - |
| 1787602706 | 37.78° C | 24% | 1013 hPa | - | - | - | - |
| 1787602406 | 38.33° C | 23% | 1013 hPa | - | - | - | - |
| 1787602106 | 39.44° C | 24% | 1013 hPa | - | - | - | - |
| 1787601803 | 40° C | 23% | 1013.2 hPa | - | - | - | - |
| 1787601497 | 40° C | 23% | 1013 hPa | - | - | - | - |
| 1787601197 | 40° C | 23% | 1013 hPa | - | - | - | - |
| 1787600585 | 39.44° C | 26% | 1013.1 hPa | - | - | - | - |
| 1787600285 | 38.33° C | 27% | 1013.2 hPa | - | - | - | - |
* Rain since midnight (hover to see other rain measurements)
** Current wind speed in m/s (hover to see current wind gust speed)